Weather observations for the past three days for
Kuparuk, Ugnu-Kuparuk Airport
Imperial (Metric)
Date Time (akdt) Wind (mph) Vis. (mi.) Weather Sky Cond. Temperature (ºF) Relative Humidity Wind Chill (°F) Heat Index (°F) Pressure Precipitation (in)
Air Dwpt 6 hour altimeter (in) sea level (mb) 1 hr 3 hr 6 hr
Max. Min.
18 12:56 SW 14 10.00 Mostly Cloudy BKN100 59 46.4 63% 29.79 0.0
18 11:46 SW 14 10.00 Mostly Cloudy BKN110 BKN190 57.2 46.4 67% 29.78 0.0
18 10:49 S 9 10.00 Mostly Cloudy BKN060 BKN120 57.2 48.2 72% 29.78 0.0
18 09:58 SW 6 10.00 Mostly Cloudy FEW075 BKN120 55.4 48.2 77% 29.77 0.0
18 08:45 W 3 10.00 Mostly Cloudy SCT085 BKN190 53.6 48.2 82% 29.77 0.0
18 06:45 W 7 10.00 Mostly Cloudy SCT160 BKN200 50 50 100% 48 29.75 0.0
18 05:51 W 9 10.00 Mostly Cloudy FEW130 BKN190 50 48.2 94% 47 29.74 0.0
18 04:45 SW 8 10.00 Mostly Cloudy BKN190 BKN200 48.2 46.4 94% 45 29.74 0.0
18 03:45 SW 8 10.00 Mostly Cloudy FEW075 BKN190 48.2 46.4 94% 45 29.74 0.0
17 18:45 E 10 10.00 Mostly Cloudy FEW070 BKN140 53.6 46.4 77% 29.72 0.0
17 17:45 E 10 10.00 Partly Cloudy FEW085 SCT095 55.4 46.4 72% 29.73 0.0
17 16:52 NE 10 10.00 Partly Cloudy SCT100 55.4 46.4 72% 29.73 0.0
17 15:45 N 10 10.00 Partly Cloudy SCT110 55.4 46.4 72% 29.74 0.0
17 14:45 N 8 10.00 A Few Clouds FEW075 55.4 48.2 77% 29.74 0.0
17 12:45 NW 9 10.00 Mostly Cloudy BKN065 BKN110 55.4 50 82% 29.74 0.0
17 11:49 W 13 10.00 Mostly Cloudy FEW075 BKN100 57.2 51.8 82% 29.74 0.0
17 10:53 SW 10 10.00 Mostly Cloudy FEW090 BKN110 57.2 50 77% 29.74 0.0
17 09:46 SE 3 10.00 Mostly Cloudy BKN100 50 48.2 94% 29.74 0.0
17 08:48 S 8 10.00 Mostly Cloudy SCT065 BKN095 46.4 46.4 100% 43 29.75 0.0
17 07:45 S 9 10.00 Mostly Cloudy FEW003 BKN060 41 41 100% 36 29.76 0.0
17 06:45 E 13 1.50 Light Showers Rain Fog/Mist BKN002 BKN023 OVC065 39.2 39.2 100% 32 29.75 0.0
17 05:45 E 9 0.19 Fog VV001 39.2 39.2 100% 34 29.76 0.0
17 04:45 E 10 0.13 Fog VV001 39.2 39.2 100% 33 29.76 0.0
17 03:55 SE 9 0.13 Fog VV001 39.2 39.2 100% 34 29.77 0.0
16 18:45 E 13 10.00 Mostly Cloudy BKN005 41 39.2 93% 34 29.84 0.0
16 17:49 NE 12 10.00 Partly Cloudy SCT008 42.8 39.2 87% 37 29.85 0.0
16 16:46 E 12 10.00 Partly Cloudy SCT010 44.6 41 87% 39 29.85 0.0
16 15:49 NE 13 10.00 A Few Clouds FEW012 46.4 41 82% 41 29.85 0.0
16 14:45 NE 7 10.00 A Few Clouds FEW013 FEW015 46.4 41 82% 43 29.85 0.0
16 13:45 NE 5 10.00 Partly Cloudy SCT013 44.6 41 87% 43 29.86 0.0
16 11:45 Vrbl 5 10.00 Overcast OVC009 42.8 39.2 87% 41 29.85 0.0
16 10:45 NW 7 10.00 Overcast OVC008 41 39.2 93% 37 29.85 0.0
16 09:45 W 6 10.00 Overcast OVC007 39.2 37.4 93% 36 29.85 0.0
16 08:53 W 7 10.00 Overcast OVC006 39.2 37.4 93% 35 29.84 0.0
16 07:47 W 9 10.00 Overcast OVC005 39.2 37.4 93% 34 29.83 0.0
16 06:45 W 10 10.00 Overcast OVC006 39.2 37.4 93% 33 29.82 0.0
16 05:48 W 10 10.00 Mostly Cloudy BKN007 39.2 39.2 100% 33 29.81 0.0
16 04:45 W 12 7.00 Mostly Cloudy BKN010 41 39.2 93% 35 29.79 0.0
16 03:55 NW 9 7.00 Mostly Cloudy BKN011 41 39.2 93% 36 29.79 0.0
15 18:45 NW 12 10.00 A Few Clouds FEW070 FEW180 46.4 42.8 87% 42 29.66 0.0
15 17:47 NW 12 10.00 Partly Cloudy FEW013 SCT070 48.2 42.8 82% 44 29.66 0.0
15 16:46 NW 10 10.00 Mostly Cloudy BKN016 50 42.8 76% 46 29.64 0.0
15 15:49 N 8 10.00 Overcast OVC017 48.2 44.6 87% 45 29.62 0.0
15 14:47 NW 9 10.00 Overcast OVC016 48.2 42.8 82% 45 29.6 0.0
15 13:45 W 13 10.00 Overcast OVC013 50 44.6 82% 46 29.59 0.0
Date Time (akdt) Wind (mph) Vis. (mi.) Weather Sky Cond. Air Dwpt Max. Min. Relative Humidity Wind Chill (°F) Heat Index (°F) altimeter (in) sea level (mb) 1 hr 3 hr 6 hr
6 hour
Temperature (ºF) Pressure Precipitation (in)